Showing default

SES 10, 42432

Orbit data source: Space-Track

SES 10, 42432 is a payload satellite owned by SES Sat. Leasing (LU) in GEO that was launched on Thu, 30 Mar 2017 UTC via an FALCON 9 launch vehicle from the Air Force Eastern Test Range (AFETR). Payload-class satellites include a variety of spacecraft equipped with specific instruments for various scientific and technological missions. These include communications satellites like Starlink; space stations such as the ISS; scientific satellites like the Hubble; Earth observation satellites from companies like Planet Labs, Umbra, and HawkEye 360; GPS; miniature CubeSats for education and research; and military/defense satellites.

Loading next visibility...
Identifier
42432, 2017-017A
Orbit
GEO
Last TLE update
11 hours ago
Origin
Manufacturer
ADS/Bremen
Mission
Operational Commercial Communications
Bus & Motor
EUROSTAR 3000, R-4D-15
Mass
5,300 kg wet, ~3,000 kg dry
Launch date (UTC)
2017-03-30 (8 years ago)
Launch vehicle
FALCON 9
Launch site
Air Force Eastern Test Range (AFETR)
Object type
Payload
Rocket body
Debris
Shape & HBR
Box + 2 Pan, 35 m
Radar Cross Section
56.564 m², Large (>1 m²)

Expand to show TLE details & history

TLE from 11 hours ago
0 SES 10
1 42432U 17017A   25186.25120502 -.00000257  00000-0  00000+0 0  9994
2 42432   0.0112  23.3237 0002828  83.1207 200.5788  1.00272060 30249
Epoch: 2025-07-05T06:01Z
TLE epoch observation values (Epoch: 2025-07-05T06:01:44.113Z)
Latitude
-0.03045°
Longitude
-66.91092°
Altitude
35,797.216 km
Speed
3.074 km/s
True Right ascension
20h 28m 03s
True Declination
0° 01' 50"
Sunlit
Object was in daylight at epoch
Visualization orbit readout
Latitude
0.03292°
Longitude
103.92747°
Altitude
35,774.318 km
Speed
3.076 km/s
Apparent Right ascension
08h 09m 30s
Apparent Declination
-6° 00' 43"
Sunlit
Object is in daylight
Visualization observer readout
Local Sidereal Time
05:18:30
Azimuth
129.117° SE
Elevation
29.532°
Doppler factor
1
Orbital elements
Apogee altitude
35,799.513 km
Perigee altitude
35,775.664 km
Semi-major axis
42,165.725 km
Eccentricity
0.00028
Inclination
0.0112°
RAAN
23.3237°
Arg. of periapsis
83.1207°
True anomaly
Unknown
Mean anomaly
200.5788°
Eccentric anomaly
Unknown
Mean motion
0.25067 °/min
Orbital period
1,436.15 mins
BSTAR
0
Loading historical data...
42432 neighbors
Loading maneuver chart data...
Loading SW <> Apogee altitude chart data...
Loading historical data...
Loading historical data...
Loading historical data...
Loading historical data...
Loading historical data...
Loading historical data...
Loading historical data...
Other satellites on launch #17 in the year 2017 (2017-03-30 UTC)

SES 10 Visibility forecast

Observer location: undefined°, undefined°

Span
Click to sort rows by Start time (UTC) header in descending order
Start Az.
Max El. time (UTC)
Max El. Az.
Max El.
End time (UTC)
End Az.
1440 mins2025-07-05 17:23:09.122Z129.131° SE2025-07-06 15:10:09.122Z129.15° SE26.241°2025-07-06 17:23:09.122Z129.129° SE
|